Regional Weather Roundup
Issued by NWS

Home | Current Version | Previous Version | Graphics & Text | Print | Product List | Glossary On
Versions: 1 2 3 4 5 6 7 8 9 10 11 12 13 14 15 16 17 18 19 20 21 22 23 24 25 26 27
000
ASUS45 KPSR 141910
RWRAZ

ARIZONA HOURLY REGIONAL WEATHER ROUNDUP
NATIONAL WEATHER SERVICE PHOENIX AZ
1200 PM MST THU DEC 14 2017

NOTE: FAIR INDICATES FEW OR NO CLOUDS BELOW 12,000 FEET WITH NO
SIGNIFICANT WEATHER AND/OR OBSTRUCTIONS TO VISIBILITY.

AZZ001>003-036-142000-
NORTHWEST ARIZONA

CITY           SKY/WX    TMP DP  RH WIND       PRES   REMARKS
BULLHEAD CITY  SUNNY     66  25  20 N39G49    30.11S
KINGMAN        SUNNY     58  21  24 N24G33    30.17S
$$

AZZ004>008-015-016-018-142000-
NORTH CENTRAL ARIZONA

CITY           SKY/WX    TMP DP  RH WIND       PRES   REMARKS
GRAND CANYON   SUNNY     44  16  32 NE26G37   30.20F
WILLIAMS       SUNNY     43  16  33 NE28G41   30.15F
PRESCOTT       SUNNY     54  19  25 NE14G22   30.11F
FLAGSTAFF      SUNNY     42  16  34 NE24G38   30.14F
PAYSON         SUNNY     52  16  24 N23G35    30.06F
PAGE           SUNNY     53  21  28 E8        30.22F
$$

AZZ009>014-017-142000-
NORTHEAST ARIZONA

CITY           SKY/WX    TMP DP  RH WIND       PRES   REMARKS
WINSLOW        SUNNY     50  21  32 N16G25    30.16F
SAINT JOHNS    MOSUNNY   41  11  29 VRB7      30.12F
WINDOW ROCK    MOSUNNY   45  22  40 VRB6      30.12F
SHOW LOW       SUNNY     43  16  33 N15       30.14F
$$

AZZ540-542>544-546-548-142000-
GREATER PHOENIX AREA

CITY           SKY/WX    TMP DP  RH WIND       PRES   REMARKS
PHOENIX        SUNNY     65  15  14 CALM      29.96F
BUCKEYE        SUNNY     63   7  11 CALM      29.99F
GLENDALE       SUNNY     63  18  17 CALM      29.99F
LUKE AFB       SUNNY     64  16  15 CALM      29.96F
DEER VALLEY    SUNNY     66   7  10 S6        29.96F
SCOTTSDALE     SUNNY     67  18  15 VRB3      29.98F
MESA-FALCON    SUNNY     66  12  12 N12       29.97
MESA-GATEWAY   SUNNY     64  16  15 CALM      29.99F
$$

AZZ539-553-142000-
SOUTHWEST MARICOPA COUNTY AND PINAL COUNTY

CITY           SKY/WX    TMP DP  RH WIND       PRES   REMARKS
CASA GRANDE    NOT AVBL
GILA BEND      SUNNY     64  14  14 NE3       29.98F
$$

AZZ503-504-507>509-142000-
SOUTHEAST ARIZONA

CITY           SKY/WX    TMP DP  RH WIND       PRES   REMARKS
TUCSON         SUNNY     66  21  18 W5        29.99F
DAVIS-MONTHAN  SUNNY     66  22  18 NW5       29.97F
RYAN FIELD     SUNNY     66  19  16 NW9       30.00F
NOGALES        SUNNY     66  25  21 SW13G20   29.99F
SIERRA VISTA   MOSUNNY   63  19  18 W9G20     30.01F
DOUGLAS        MOSUNNY   65  33  30 E8        29.99F
SAFFORD        SUNNY     57  17  21 NW8       30.00F
$$

AZZ532-142000-
SOUTHWEST ARIZONA

CITY           SKY/WX    TMP DP  RH WIND       PRES   REMARKS
YUMA           SUNNY     72  17  12 N23G37    29.99F
$$

CAZ041-043-047-048-061-525>527-560>570-142000-
SOUTHERN CALIFORNIA

CITY           SKY/WX    TMP DP  RH WIND       PRES   REMARKS
DOWNTOWN L.A.  SUNNY     69  26  20 W5        30.01F
L.A. AIRPORT   MOSUNNY   68  45  43 W8        30.02F
SAN DIEGO      MOSUNNY   67  16  14 CALM      30.03F
BURBANK        SUNNY     71  19  14 SE8       30.01F
ONTARIO        MOSUNNY   79  11   7 NE24G35   30.02S
RIVERSIDE      SUNNY     77  17  10 N15G28    30.02S
PALM SPRINGS   SUNNY     81  12   7 E7        30.07S
EL CENTRO NAS  SUNNY     76  12   8 N20       30.04F
IMPERIAL       SUNNY     75  19  12 NW12G21   30.01F
BLYTHE         SUNNY     73  22  14 N31G40    30.02F
NEEDLES        SUNNY     70  23  17 N37G47    30.11F
$$

NVZ020-UTZ003-142000-
SOUTHERN NEVADA-UTAH

CITY           SKY/WX    TMP DP  RH WIND       PRES   REMARKS
LAS VEGAS      SUNNY     64  22  20 N15       30.24F
SALT LAKE CITY MOSUNNY   36  27  69 SE3       30.45F
$$

NMZ009-TXZ055-142000-
NEW MEXICO-WEST TEXAS

CITY           SKY/WX    TMP DP  RH WIND       PRES   REMARKS
ALBUQUERQUE    MOSUNNY   45  13  27 E28       30.14F
EL PASO        MOSUNNY   57  24  28 N9        30.02F
$$


........................KEY........................
SKY/WX - SKY CONDITION/WEATHER
TMP    - TEMPERATURE IN FAHRENHEIT
DP     - DEW POINT IN FAHRENHEIT
RH     - RELATIVE HUMIDITY IN PERCENT
WIND   - DIRECTION AND SPEED IN MILES PER HOUR (MPH)
VRB    - VARIABLE WIND DIRECTION
PRES   - MEAN SEA LEVEL PRESSURE IN INCHES OF MERCURY
         F - FALLING PRESSURE   R - RISING PRESSURE
         S - STEADY PRESSURE
VSB    - VISIBILITY IN MILES
HX     - HEAT INDEX IN FAHRENHEIT
WCI    - WIND CHILL INDEX IN FAHRENHEIT
TC     - TEMPERATURE IN CELSIUS WHICH IS ALSO KNOWN AS
         TEMPERATURE IN CENTIGRADE
AFB    - AIR FORCE BASE
         LUKE AFB IS LUKE AIR FORCE BASE
         DAVIS-MONTHAN IS DAVIS-MONTHAN AIR FORCE BASE
NAS    - NAVAL AIR STATION
         EL CENTRO NAS IS EL CENTRO NAVAL AIR STATION
N/A    - NOT AVAILABLE





USA.gov is the U.S. government's official web portal to all federal, state and local government web resources and services.